This is the latest recevied weather packets stored in our database for station/object N1ORT. If no packets are shown the sender has not sent any weather packets the latest 10 day(s).
| Time | Temp. | Humidity | Pressure | Rain* | Wind** | Luminosity | Snow |
|---|---|---|---|---|---|---|---|
| 1788577463 | 18.89° C | 87% | 1008.2 hPa | 0 mm | - | 0 W/m² | - |
| 1788577162 | 18.33° C | 87% | 1007.9 hPa | 0 mm | - | 0 W/m² | - |
| 1788576857 | 18.89° C | 86% | 1007.8 hPa | 0 mm | - | 0 W/m² | - |
| 1788576554 | 18.89° C | 87% | 1007.7 hPa | 0 mm | - | 0 W/m² | - |
| 1788576254 | 18.89° C | 87% | 1008.1 hPa | 0 mm | - | 0 W/m² | - |
| 1788575950 | 18.89° C | 87% | 1007.7 hPa | 0 mm | - | 0 W/m² | - |
| 1788575645 | 18.89° C | 88% | 1007.9 hPa | 0 mm | - | 0 W/m² | - |
| 1788575343 | 18.89° C | 86% | 1008 hPa | 0 mm | - | 0 W/m² | - |
| 1788575033 | 18.89° C | 86% | 1008 hPa | 0 mm | - | 0 W/m² | - |
| 1788574728 | 18.33° C | 87% | 1008.1 hPa | 0 mm | - | 0 W/m² | - |
| 1788574423 | 18.33° C | 90% | 1008 hPa | 0 mm | - | 0 W/m² | - |
| 1788574118 | 17.78° C | 90% | 1008.2 hPa | 0 mm | - | 0 W/m² | - |
| 1788573812 | 18.33° C | 93% | 1008.2 hPa | 0 mm | - | 0 W/m² | - |
| 1788573512 | 18.33° C | 91% | 1008.1 hPa | 0 mm | - | 0 W/m² | - |
| 1788573211 | 18.89° C | 88% | 1008.1 hPa | 0 mm | - | 0 W/m² | - |
| 1788572905 | 18.33° C | 88% | 1008.2 hPa | 0 mm | - | 0 W/m² | - |
| 1788572601 | 18.89° C | 91% | 1008.1 hPa | 0 mm | - | 0 W/m² | - |
| 1788572296 | 18.33° C | 89% | 1008.4 hPa | 0 mm | - | 0 W/m² | - |
| 1788571992 | 18.89° C | 91% | 1008.5 hPa | 0 mm | - | 0 W/m² | - |
| 1788571687 | 18.33° C | 91% | 1008.3 hPa | 0 mm | - | 0 W/m² | - |
| 1788571383 | 18.89° C | 91% | 1008.6 hPa | 0 mm | - | 0 W/m² | - |
| 1788571079 | 18.89° C | 90% | 1008.2 hPa | 0 mm | - | 0 W/m² | - |
| 1788570775 | 18.89° C | 90% | 1008.2 hPa | 0 mm | - | 0 W/m² | - |
| 1788570469 | 18.89° C | 90% | 1008.6 hPa | 0 mm | - | 0 W/m² | - |
| 1788570165 | 18.89° C | 90% | 1008.3 hPa | 0 mm | - | 0 W/m² | - |
* Rain latest hour (hover to see other rain measurements)
** Current wind speed in m/s (hover to see current wind gust speed)